Contact Us:
Email: info@sawbill.com
Phone: (218)663-7150
Fax: (218)663-7980
Mail: 4620 Sawbill Trail
Box 2129
Tofte, MN 55615


Powered by
Movable Type 3.15
 
Sawbill Weather History
Check out the 7 Day Weather Forecast for the Superior National Forest.
Date High
Temperature
Low
Temperature
Barometric
Pressure
Relative
Humidity 7AM
9 AM
Temperature
Moisture Snow
7/23/16 77 61 29.86 88% 63 Trace
7/22/16 83 60 30.04 74% 61 0
7/21/16 82 60 30.00 79% 60 0
7/20/16 86 58 29.90 98% 67 .26"
7/19/16 77 47 30.08 76% 58 0
7/18/16 70 47 30.18 74% 47 0
7/17/16 73 56 30.04 94% 56 .42"
7/16/16 73 45 29.94 86% 57 0
7/15/16 65 45 30.04 79% 45 0
7/14/16 62 51 30.02 85% 51 Trace
7/13/16 72 62 29.82 98% 62 .41"
7/12/16 78 63 29.72 65% 65 0
7/11/16 67 62 29.74 98% 63 1.11"
7/10/16 73 54 29.90 90% 62 0
7/9/16 71 60 30.00 74% 60 0
7/8/16 68 58 30.10 84% 60 .15"
7/7/16 73 57 29.84 98% 58 .42"
7/6/16 80 56 29.94 71% 57 0
7/5/16 80 57 29.98 96% 59 Trace
7/4/16 75 55 29.86 96% 56 .51"
7/3/16 76 54 29.96 76% 58 0
7/2/16 74 51 30.10 74% 60 0
7/1/16 69 49 30.12 76% 54 0
6/30/16 65 48 30.12 84% 49 0
6/29/16 76 57 30.00 98% 58 .93"
6/28/16 71 48 30.10 65% 61 0
6/27/16 59 49 30.20 85% 51 Trace
6/26/16 73 54 30.02 76% 54 .14"
6/25/16 69 58 29.88 78% 59 .42"
6/24/16 78 52 29.98 72% 60 0
6/23/16 76 52 30.06 66% 52 0
6/22/16 68 46 30.02 69% 53 0
6/21/16 69 44 30.02 68% 46 0
6/20/16 70 49 30.00 45% 62 0
6/19/16 83 60 29.98 50% 60 Trace
6/18/16 80 59 30.10 84% 62 .08"
6/17/16 76 50 30.18 75% 68 Trace
6/16/16 80 51 30.16 68% 61 0
6/15/16 60 45 30.08 98% 50 .05"
6/14/16 64 53 29.92 94% 56 .16"
6/13/16 59 47 30.04 91% 53 .03"
6/12/16 61 46 30.08 98% 47 1"
6/11/16 68 44 30.20 71% 46 0
6/10/16 71 52 29.98 72% 63 .4"
6/9/16 72 43 30.00 63% 52 0
6/8/16 65 41 30.09 68% 43 0
6/7/16 59 40 30.04 77% 41 0
6/6/16 56 45 29.98 65% 45 .07"
6/5/16 63 50 29.76 91% 53 .28"
6/4/16 57 50 29.84 97% 50 .33"
6/3/16 65 51 29.98 94% 52 .3"
6/2/16 59 42 30.06 80% 42 .76"
6/1/16 71 47 29.96 93% 51 .76"
5/31/16 55 48 29.98 95% 56 .18"
5/30/16 75 46 30.00 81% 46 0
5/29/16 62 52 30.00 96% 54 .39"
5/28/16 64 56 29.92 98% 58 .22"
5/27/16 67 51 29.96 98% 56 1.07"
5/26/16 64 51 29.98 84% 52 0
5/25/16 64 50 29.94 94% 56 .02"
5/24/16 70 51 30.04 88% 52 .09"
5/23/16 78 49 30.00 81% 57 .47"
5/22/16 78 49 29.98 48% 51 0
5/21/16 77 45 30.14 61% 49 0
5/20/16 70 43 30.20 47% 55 0
5/19/16 72 48 30.12 58% 52 0
5/18/16 67 37 30.16 59% 38 0
5/17/16 58 35 30.24 53% 41 0
5/16/16 52 34 30.24 67% 35 0
5/15/16 51 32 30.04 80% 38 .19"
5/14/16 36 27 30.00 59% 27 .02" Trace
5/13/16 42 26 30.02 72% 27 .06" Trace
5/12/16 57 38 29.96 56% 38 0
5/11/16 57 45 29.98 87% 47 .3"
5/10/16 62 42 30.10 39% 50 0
5/9/16 60 37 30.10 40% 46 0
5/8/16 66 36 30.08 56% 45 0
5/7/16 56 27 30.08 92% 36 0
5/6/16 84 41 30.00 50% 43 .02"
5/5/16 69 37 29.94 45% 57 0
5/4/16 54 33 30.04 65% 37 0
5/3/16 61 31 30.00 55% 37 .04"
5/2/16 64 29 30.08 45% 50 0
5/1/16 51 32 30.24 43% 36 0
4/30/16 52 22 30.12 93% 22 0
4/29/16 51 32 30.26 58% 38 0
4/28/16 54 32 30.06 82% 34 0
4/27/16 51 27 30.12 92% 34 0
4/26/16 54 20 30.08 92% 20 0
4/25/16 44 30 30.06 92% 32 .45"
4/24/16 40 33 29.96 90% 33 .09"
4/23/16 48 36 30.00 89% 36 .01"
4/22/16 47 33 30.18 33% 36 0
4/21/16 58 29 30.20 48% 30 .16"
4/20/16 60 34 30.02 73% 39 0
4/19/16 61 26 30.10 76% 42 0
4/18/16 44 31 30.36 87% 36 0
4/17/16 70 37 30.36 73% 37 .4"
4/16/16 68 39 30.28 67% 40 0
4/15/16 60 38 30.20 67% 53 0
4/14/16 54 36 30.12 73% 39 0
4/13/16 43 30 30.14 59% 35 0
4/12/16 36 22 30.22 78% 31 0
4/11/16 30 21 30.20 54% 22 .08" .5"
4/10/16 36 24 29.84 73% 24 .08" 1"
4/9/16 27 -5 29.86 82% 27 .02" Trace
4/8/16 26 -7 30.14 51% -5 .06" .5"
4/7/16 36 18 29.96 70% 19 .28" 3.5"
4/6/16 36 25 29.90 66% 26 0
4/5/16 35 9 29.86 82% 30 .6" 6"
4/4/16 28 8 30.22 51% 9 0
4/3/16 25 2 30.18 57% 11 .1" 1"
4/2/16 21 14 29.88 63% 16 .14" 1.5"
4/1/16 28 16 29.84 56% 16 .09" .5"
3/31/16 40 24 29.82 62% 24 Trace Trace
3/30/16 42 30 29.76 85% 33 .07"
3/29/16 52 23 29.90 78% 39 .2"
3/28/16 40 22 30.16 58% 23 0
3/27/16 39 23 30.10 71% 29 0
3/26/16 35 27 30.06 66% 29 Trace Trace
3/25/16 40 22 30.10 72% 27 .08" 1"
3/24/16 36 14 30.00 78% 22 0
3/23/16 32 7 30.08 56% 14 0
3/22/16 34 7 30.12 58% 7 0
3/21/16 34 10 29.96 73% 24 0
3/20/16 31 10 30.10 61% 10 0
3/19/16 32 9 30.20 78% 20 0
3/18/16 29 4 30.26 62% 9 0
3/17/16 27 14 30.14 68% 14 Trace Trace
3/16/16 34 23 29.82 83% 23 1.07" 10"
3/15/16 43 33 29.80 94% 33 .39"
3/14/16 46 34 29.80 95% 39 .02"
3/13/16 47 36 29.82 86% 37 .11"
3/12/16 54 34 30.00 48% 40 0
3/11/16 46 32 30.10 49% 41 0
3/10/16 36 20 30.08 92% 33 0
3/9/16 35 30 30.08 77% 31 Trace Trace
3/8/16 47 31 29.92 89% 33 .06"
3/7/16 49 22 29.91 70% 36 0
3/6/16 48 28 29.90 78% 31 0
 


Home I Trip Planning I Rentals and Outfitting I Reservations I Campgrounds I Sawbill Store I Sawbill News I Contact

© 1997 - 2016, Sawbill Canoe Outfitters, Inc. I Privacy Policy